Location: Enkengr�n
(49.9833°N, 12.8352°E)
Time: 12:43:06
(UTC+00:00)

Daily predictions for brighter satellites

Satellite Brightness Start Highest point End
(mag) Time Altitude Azimuth Time Altitude Azimuth Time Altitude Azimuth
Cosmos 2278 3.8 18:58:15 10° NNW 19:04:01 79° ENE 19:09:43 10° SSE
Cosmos 2322 Rocket 3.6 19:00:12 10° NNW 19:04:59 27° NE 19:09:47 10° E
Terra 4.0 19:03:48 10° ENE 19:05:20 11° NE 19:06:52 10° NNE
Cosmos 1633 Rocket 3.7 19:01:46 10° SSE 19:05:50 37° E 19:09:54 10° NNE
Cosmos 1238 Rocket 4.3 19:06:07 10° ESE 19:07:12 12° E 19:08:18 10° ENE
MOS 1 Rocket 4.1 19:02:06 10° N 19:07:32 68° WNW 19:12:47 10° SSW
Cosmos 1140 Rocket 3.6 19:05:01 10° S 19:10:10 59° ESE 19:15:20 10° NNE
USA 276 2.1 19:07:51 10° W 19:11:02 88° N 19:14:13 10° E
MetOp-A 4.4 19:07:10 10° S 19:12:31 78° WSW 19:17:55 10° NNW
X-37B 1.5 19:12:24 10° WSW 19:15:17 33° S 19:18:09 10° ESE
Cosmos 2360 Rocket 3.9 19:11:07 10° N 19:15:22 21° NE 19:19:34 10° E
ATLAS 5 CENTAUR R/B 4.3 19:11:28 10° WNW 19:16:12 26° WSW 19:21:28 10° S
Cosmos 921 Rocket 3.4 19:12:47 10° N 19:16:51 44° ENE 19:20:51 10° SE
Cosmos 1707 Rocket 3.6 19:14:35 10° N 19:18:57 88° W 19:23:16 10° S
FALCON 9 DEB 3.1 19:15:56 10° WSW 19:19:24 72° SSE 19:22:55 10° ENE
USA 186 4.0 19:21:49 10° SW 19:23:15 15° W 19:24:42 10° NW
Cosmos 44 4.4 19:18:58 10° NNW 19:23:25 35° NE 19:28:05 10° ESE
Genesis I 3.8 19:19:38 10° NW 19:23:26 51° SW 19:27:10 10° SSE
Cosmos 1980 Rocket 2.3 19:19:18 10° NNW 19:25:00 83° WSW 19:30:39 10° SSE
OBJECT-B 1.2 19:21:52 10° S 19:25:08 67° WSW 19:28:26 10° NNW
CZ-2C R/B 3.7 19:23:34 10° NNE 19:28:10 67° ESE 19:32:38 10° S
Intercosmos 25 3.9 19:25:34 10° NNW 19:29:33 53° W 19:32:42 10° S
Cosmos 1470 Rocket 4.1 19:29:27 10° SSE 19:33:34 40° E 19:37:40 10° NNE
Meteor 1-4 Rocket 2.7 19:33:56 10° NNW 19:37:24 69° W 19:40:49 10° S
Cosmos 1833 Rocket 3.2 19:31:53 10° SW 19:37:28 67° WNW 19:43:07 10° NNE
NOSS 3-2 (A) 3.5 19:32:05 10° SSW 19:37:36 53° ESE 19:43:56 10° NE
Cosmos 1697 Rocket 3.9 19:32:57 10° NW 19:38:07 38° WSW 19:43:15 10° S
Cosmos 1184 Rocket 2.9 19:34:55 10° S 19:38:08 55° E 19:41:23 10° NNE
Meteor 2-20 Rocket 4.5 19:32:46 10° N 19:38:59 78° E 19:45:08 10° SSE
USA 267 3.8 19:33:18 10° ENE 19:39:11 34° SE 19:45:03 10° SSW
Sich 1 3.7 19:35:33 10° SSW 19:39:55 59° WNW 19:44:20 10° N
SPOT 5 3.9 19:40:39 14° ESE 19:43:31 25° ENE 19:47:10 10° N
Cosmos 405 Rocket 3.3 19:42:21 13° SSE 19:45:16 34° E 19:48:42 10° NNE
Cosmos 1862 Rocket 3.6 19:41:54 10° N 19:46:24 89° E 19:50:48 10° S
SL-27 R/B 4.0 19:46:33 16° ESE 19:46:41 16° E 19:48:47 10° ENE
NOSS 3-2 (C) 3.8 19:41:45 10° S 19:47:02 40° ESE 19:53:00 10° NE
Cosmos 1437 Rocket 3.6 19:44:19 10° N 19:47:48 32° ENE 19:49:58 18° SE
SPOT 1/Viking Rocket 3.9 19:45:04 14° SE 19:49:22 52° ENE 19:54:27 10° N
Cosmos 1934 Rocket 4.1 19:44:49 10° S 19:51:12 88° E 19:57:36 10° N
Cosmos 2333 Rocket 4.2 19:48:32 10° N 19:52:36 19° NE 19:56:38 10° E
Landsat 7 3.9 19:48:45 14° SSE 19:52:46 64° ENE 19:57:29 10° N
ERBS 4.5 19:50:05 10° WNW 19:52:51 23° N 19:55:36 10° NE
Resurs 01 Rocket 2.0 19:48:30 10° S 19:52:53 64° WSW 19:57:19 10° NNW
USA 32 4.0 19:48:52 10° S 19:54:02 67° E 19:59:14 10° N
Cosmos 1515 4.4 19:51:27 10° N 19:55:02 36° ENE 19:57:05 21° SE
Cosmos 676 Rocket 4.1 19:53:53 10° SSW 19:59:14 88° WNW 20:04:37 10° NNE
ERS-1 Rocket 3.5 19:56:12 18° SE 19:59:37 44° ENE 20:04:22 10° N
GP-B 3.0 19:56:07 10° N 20:00:36 80° E 20:04:54 11° S
Okean 1 3.4 19:59:27 10° N 20:03:30 65° ENE 20:06:08 21° SSE
Cosmos 841 Rocket 4.1 19:59:11 10° NNW 20:04:11 44° ENE 20:07:29 20° ESE
Meteor 1-19 Rocket 4.2 19:58:55 10° N 20:04:20 64° ENE 20:08:21 18° SSE
CARTOSAT-1 4.0 20:06:55 22° SE 20:09:23 48° ENE 20:13:33 10° N
BREEZE-M DEB (TANK) 1.4 20:09:00 10° W 20:11:27 71° S 20:11:49 51° ESE
Cosmos 468 Rocket 4.0 20:06:23 10° NNW 20:11:44 86° WSW 20:15:29 20° SSE
Cosmos 1867 3.9 20:07:22 10° SW 20:12:48 69° NW 20:18:16 10° NE
Cosmos 1933 Rocket 3.5 20:10:14 12° S 20:14:14 73° E 20:18:42 10° NNE
USA 234 3.3 20:10:46 16° ESE 20:16:08 78° NNE 20:22:41 10° WNW
SL-4 R/B 1.9 20:13:07 10° W 20:17:04 73° N 20:20:23 12° ENE
ATLAS 3B R/B 3.5 20:14:38 20° SSE 20:17:31 27° ESE 20:22:53 10° ENE
IGS 5A 3.6 20:15:48 18° S 20:18:47 72° WSW 20:22:57 10° NNW
Meteor 2-4 Rocket 3.9 20:15:36 10° N 20:21:10 56° ENE 20:24:18 25° SE
Cosmos 1869 Rocket 4.1 20:23:53 28° SE 20:25:33 40° E 20:29:43 10° NNE
Iridium 4 Rocket 4.0 20:25:27 26° ESE 20:26:30 29° E 20:30:07 10° NNE
Cosmos 1814 Rocket 4.3 20:22:46 10° NNW 20:27:54 54° ENE 20:30:36 27° SE
Meteor 1-14 Rocket 4.3 20:23:17 14° S 20:28:25 70° E 20:34:23 10° NNE
Spot 2 Rocket 3.8 20:25:34 17° S 20:29:31 64° WSW 20:34:37 10° NNW
SL-16 R/B 2.2 20:25:10 10° NNW 20:30:53 82° WSW 20:34:14 26° SSE
CZ-4B DEB 4.2 20:30:11 39° SSE 20:31:18 84° ENE 20:34:39 10° NNW
Cosmos 2219 Rocket 3.7 20:26:35 10° NNW 20:31:20 26° NE 20:35:05 14° E
Cosmos 1741 Rocket 3.9 20:28:21 10° SSW 20:33:35 72° ESE 20:38:53 10° NNE
Okean 1-7 2.9 20:29:31 10° N 20:33:53 89° E 20:36:00 30° S
Cosmos 1703 Rocket 3.5 20:30:36 10° NNW 20:34:58 81° W 20:37:16 27° S
Cosmos 1536 4.5 20:36:28 19° E 20:36:28 19° E 20:39:09 10° NE
USA 238 DEB 3.8 20:30:08 10° SW 20:36:49 79° NW 20:43:49 10° NE
USA 238 3.8 20:30:15 10° SW 20:36:55 80° NW 20:43:56 10° NE
ATLAS 5 CENTAUR R/B 2.3 20:34:43 10° NW 20:37:09 48° NE 20:39:33 24° ESE
Cosmos 1570 Rocket 4.0 20:34:41 10° NNW 20:40:03 81° ENE 20:42:42 31° SSE
Cosmos 2082 Rocket 3.6 20:36:32 10° WSW 20:41:53 40° NW 20:47:14 10° NNE
Terra 1.9 20:40:06 33° SE 20:42:10 64° ENE 20:46:54 10° N
Lacrosse 5 2.5 20:38:45 10° WNW 20:43:33 43° SW 20:45:36 28° S
Cosmos 1238 Rocket 3.8 20:44:12 13° SW 20:46:25 31° WNW 20:49:10 10° N
CENTAUR R/B 2.5 20:41:13 10° SW 20:47:14 83° SE 20:54:28 10° NE
USA 276 2.5 20:44:12 10° W 20:47:07 46° SSW 20:47:07 46° SSW
Cosmos 2208 Rocket 3.9 20:43:32 10° NNW 20:48:50 80° ENE 20:51:06 35° SSE
Cosmos 2100 Rocket 3.9 20:45:27 25° S 20:49:10 67° E 20:55:16 10° NNE
Cosmos 1763 Rocket 4.1 20:44:15 10° NNW 20:49:24 50° WSW 20:52:27 23° S
Cosmos 2322 Rocket 2.3 20:43:56 10° NNW 20:49:37 74° WSW 20:52:29 30° SSE
X-37B 2.5 20:48:52 10° WSW 20:50:24 19° SW 20:50:24 19° SW
Cosmos 2173 Rocket 3.9 20:52:59 27° S 20:56:31 71° E 21:02:36 10° NNE
FALCON 9 DEB 3.9 20:53:09 10° W 20:56:36 51° N 20:58:46 20° ENE
Cosmos 2237 4.2 20:51:46 10° NNW 20:57:31 83° ENE 20:59:59 36° SE
Cosmos 1733 Rocket 4.1 20:57:31 29° E 20:57:40 29° E 21:01:29 10° NNE
Cosmos 2084 Rocket 3.3 20:54:58 10° SW 20:59:10 89° NW 21:03:30 10° NE
Cosmos 2360 Rocket 2.2 20:54:35 10° NNW 21:00:18 80° ENE 21:02:39 37° SE
Cosmos 1500 3.0 20:59:53 53° S 21:00:42 87° E 21:04:28 10° N
Cosmos 44 3.8 21:00:04 10° NW 21:04:51 53° WSW 21:06:35 36° S
Cosmos 1725 Rocket 4.3 21:04:43 34° SE 21:07:03 50° E 21:13:08 10° NNE
SAR-Lupe-2 3.8 21:05:40 10° N 21:09:14 69° WNW 21:10:12 45° SW
Cosmos 1356 4.2 21:10:48 40° ENE 21:10:48 40° ENE 21:13:27 10° NNE
Cosmos 1666 2.9 21:11:57 50° E 21:11:57 50° E 21:15:25 10° NNE
Cosmos 1459 Rocket 4.0 21:08:09 26° S 21:11:57 88° E 21:18:22 10° N
Cosmos 2016 Rocket 4.0 21:13:23 35° SSE 21:16:10 69° E 21:22:31 10° NNE
Cosmos 1242 Rocket 3.0 21:13:09 10° N 21:16:36 47° ENE 21:16:36 47° ENE
COSMOS 2428 3.4 21:13:59 10° NNW 21:19:30 44° NE 21:21:52 30° ESE
Cosmos 44 Rocket 4.1 21:15:30 10° NNW 21:20:17 46° NE 21:22:15 31° E
Cosmos 2221 Rocket 3.5 21:16:04 10° N 21:20:35 88° WSW 21:21:32 56° S
Cosmos 2346 Rocket 4.3 21:14:43 10° N 21:20:49 86° E 21:23:12 40° SSE
SPOT 5 3.5 21:19:54 30° SW 21:21:26 41° W 21:25:38 10° NNW
SL-27 R/B 3.7 21:20:03 24° WSW 21:21:29 37° WNW 21:24:37 10° N
USA 267 3.2 21:16:07 10° ENE 21:22:42 89° NNW 21:29:16 10° WSW
Cosmos 1743 4.3 21:28:20 24° ENE 21:28:20 24° ENE 21:30:46 10° NNE
Cosmos 540 Rocket 4.2 21:23:06 10° NW 21:28:02 45° WSW 21:29:45 33° SSW
Cosmos 1378 4.1 21:25:01 10° N 21:28:16 37° ENE 21:28:16 37° ENE
Lacrosse 4 Rocket 2.2 21:29:55 37° ENE 21:29:55 37° ENE 21:32:56 10° NE
Cosmos 2237 Rocket 3.8 21:24:30 10° NNW 21:29:14 26° NE 21:32:28 16° E
ERBS 3.6 21:26:43 10° NW 21:29:47 34° NNE 21:30:18 32° NE
Cosmos 1864 Rocket 4.4 21:27:52 40° S 21:30:12 73° E 21:36:28 10° NNE
CRYOSAT 2 4.4 21:26:41 10° NNE 21:31:31 58° E 21:32:12 53° SE
Cosmos 1378 Rocket 4.0 21:28:40 10° N 21:32:59 48° ENE 21:33:20 47° E
Cosmos 1271 Rocket 3.5 21:32:05 10° N 21:35:26 39° ENE 21:35:26 39° ENE
NOSS 3-2 (C) 4.2 21:31:55 10° WSW 21:37:43 55° NW 21:44:28 10° NE
Cosmos 2333 Rocket 2.3 21:32:13 10° NNW 21:38:00 68° ENE 21:39:44 45° ESE
ERS-1 Rocket 4.4 21:36:12 20° SW 21:38:33 29° W 21:42:57 10° NNW
Cosmos 2061 Rocket 3.9 21:37:27 36° SSW 21:40:11 84° W 21:46:26 10° N
Meteor 1-11 Rocket 3.7 21:42:33 40° SSW 21:44:42 82° WNW 21:50:33 10° N
Cosmos 1066 Rocket 4.1 21:40:40 10° NNW 21:46:24 86° W 21:47:48 53° S
Cosmos 2233 Rocket 4.1 21:45:59 46° SSE 21:47:43 64° E 21:53:59 10° NNE
Cosmos 1802 Rocket 4.3 21:45:24 27° SSW 21:48:56 64° WNW 21:55:15 10° N
Cosmos 1975 Rocket 4.3 21:48:59 10° N 21:52:56 29° ENE 21:53:12 29° ENE
COSMOS 2487 3.3 21:55:26 45° NNE 21:55:26 45° NNE 21:57:56 10° NNE
SL-4 R/B 2.4 21:53:03 10° WNW 21:55:57 49° WNW 21:55:57 49° WNW
Thor Agena Rocket 3.6 21:52:52 10° NNE 21:57:54 57° ESE 21:58:13 56° ESE
USA 234 3.7 21:58:07 39° SSW 21:59:29 43° SW 22:05:41 10° WNW
Spot 4 3.7 22:03:39 72° S 22:04:08 86° WSW 22:09:00 10° NNW
ATLAS 3B R/B 2.6 22:01:44 14° SW 22:07:34 79° NW 22:14:16 10° NE
Cosmos 2227 Rocket 4.2 22:09:36 14° E 22:09:36 14° E 22:11:51 10° ENE
Cosmos 1536 3.7 22:12:10 41° W 22:12:27 42° WNW 22:16:15 10° N
SL-16 R/B 4.3 22:11:02 10° WNW 22:14:05 15° W 22:16:06 12° WSW
Cosmos 2219 Rocket 2.1 22:10:12 10° NNW 22:15:54 76° WSW 22:16:46 62° S
Cosmos 1674 Rocket 4.0 22:13:54 10° NNW 22:18:06 49° W 22:18:07 49° W
NOSS 0 Rocket 4.0 22:12:33 10° NNW 22:18:49 71° ENE 22:20:35 48° ESE
Terra 3.8 22:18:59 17° WSW 22:20:21 19° W 22:23:42 10° NW
Cosmos 2322 4.1 22:17:27 10° NW 22:22:53 48° WSW 22:23:35 46° SW
Cosmos 1842 3.9 22:20:14 10° N 22:23:29 52° NNE 22:23:29 52° NNE
EO 1 Del DPAF 3.9 22:20:49 10° NNE 22:23:43 52° NNE 22:23:43 52° NNE
MOS 1-B Rocket 4.1 22:22:26 10° N 22:28:00 62° WNW 22:29:54 40° SW
Cosmos 2344 4.4 22:19:56 10° NW 22:28:56 70° NE 22:39:29 16° ESE
Cosmos 1503 Rocket 3.9 22:29:01 69° SE 22:29:17 71° ESE 22:34:39 10° NNE
Okean 2 3.6 22:28:09 10° N 22:31:45 67° N 22:31:45 67° N
Cosmos 2322 Rocket 4.4 22:30:13 10° WNW 22:32:39 13° W 22:34:18 12° WSW
Geosat 4.3 22:33:13 52° WSW 22:33:19 52° WSW 22:38:15 10° NW
Meteor 2-11 Rocket 4.3 22:32:27 57° SSW 22:33:48 85° W 22:39:59 10° N
ALOS 2 2.6 22:35:05 77° NW 22:35:05 77° NW 22:39:15 10° NNW
Cosmos 1486 Rocket 4.2 22:33:50 51° WSW 22:34:57 65° WNW 22:40:09 10° NNE
Cosmos 1733 Rocket 4.3 22:34:35 31° W 22:35:24 33° WNW 22:39:26 10° N
CENTAUR R/B 4.1 22:32:42 10° W 22:38:43 38° NNW 22:45:46 10° NE
Cosmos 1975 3.4 22:43:45 56° NNE 22:43:45 56° NNE 22:47:01 10° NNE
SL-16 R/B 3.6 22:38:10 10° NNW 22:43:19 33° NE 22:46:19 21° E
Cosmos 2360 Rocket 3.9 22:39:43 10° NW 22:43:37 19° W 22:44:24 19° WSW
Meteor 1-21 4.1 22:41:15 10° NNW 22:47:06 89° ENE 22:47:53 68° SSE
Meteor 1-24 4.5 22:42:19 10° NNW 22:47:54 86° WSW 22:48:28 73° S
SL-24 DEB 4.2 22:49:12 10° N 22:53:57 86° NW 22:53:57 86° NW
Cosmos 773 Rocket 3.8 22:49:26 10° NNW 22:54:38 88° ENE 22:54:49 83° SE
Helios 1A 3.3 22:59:36 65° NNE 22:59:36 65° NNE 23:03:23 10° N
Cosmos 968 Rocket 4.1 22:58:02 40° W 22:59:16 48° WNW 23:04:17 10° NNE
Cosmos 1782 Rocket 3.7 23:00:31 68° NNW 23:00:31 68° NNW 23:04:27 10° N
Cosmos 44 Rocket 4.3 22:57:11 10° NW 23:00:56 35° W 23:00:56 35° W
Cosmos 2297 Rocket 2.8 23:02:01 41° ESE 23:02:01 41° ESE 23:07:09 10° NE
Cosmos 1743 4.3 23:03:24 29° WNW 23:03:24 29° WNW 23:06:39 10° N
COSMOS 2428 3.4 22:58:27 10° NW 23:03:43 39° WSW 23:03:51 38° WSW
Meteor 2-9 Rocket 4.1 23:03:15 69° SSW 23:03:59 84° WNW 23:09:48 10° N
USA 267 4.0 22:59:09 10° ENE 23:05:29 53° N 23:11:47 10° W
Cosmos 1980 3.5 22:59:55 10° NNW 23:05:38 80° WSW 23:06:08 73° S
Cosmos 1538 Rocket 3.9 23:00:39 10° NNW 23:05:50 73° ENE 23:06:16 68° ESE
Lacrosse 4 Rocket 3.2 23:06:12 22° W 23:07:45 28° NW 23:11:23 10° NNE
Cosmos 1607 4.2 23:04:26 10° NW 23:10:52 68° NE 23:13:36 36° ESE
In-Cosmos 22 4.3 23:06:31 10° N 23:12:03 63° ENE 23:12:49 57° ESE
Cosmos 2219 3.3 23:13:13 56° ESE 23:13:18 57° ESE 23:18:49 10° NE
Cosmos 2237 Rocket 2.0 23:08:14 10° NNW 23:13:54 75° WSW 23:14:16 72° SSW
Cosmos 2026 Rocket 4.5 23:13:26 10° N 23:19:24 51° ENE 23:21:07 40° ESE
Cosmos 2333 Rocket 3.6 23:17:17 10° NW 23:21:43 24° WSW 23:21:43 24° WSW
Timation 2 Rocket 3.8 23:26:06 61° SW 23:27:16 87° WNW 23:33:19 10° NNE
Meteor 1-12 Rocket 4.3 23:28:45 65° SSE 23:29:40 79° E 23:35:43 10° NNE
Cosmos 1975 Rocket 4.3 23:26:46 10° NNW 23:30:20 33° WNW 23:30:20 33° WNW
Cosmos 1674 3.8 23:30:12 10° N 23:33:07 39° NE 23:33:07 39° NE
Cosmos 1300 Rocket 3.7 23:34:20 69° N 23:34:20 69° N 23:38:11 10° N
Cosmos 1634 Rocket 4.3 23:35:14 47° SE 23:36:33 55° E 23:42:35 10° NNE
Cosmos 1464 Rocket 4.4 23:39:31 43° WSW 23:41:01 52° WNW 23:47:03 10° N
Helios 1B rocket 3.0 23:41:34 10° NNE 23:45:01 50° ENE 23:45:01 50° ENE
Cosmos 1680 Rocket 3.9 23:40:52 10° NNW 23:46:03 57° ENE 23:47:20 44° ESE
Meteor 2-5 Rocket 4.2 23:41:19 10° N 23:46:48 52° ENE 23:48:23 40° ESE
CZ-2D R/B 3.8 23:42:32 10° NE 23:46:48 23° E 23:48:16 20° ESE
Cosmos 1707 4.1 23:44:41 10° NNW 23:47:18 32° NW 23:47:18 32° NW
Okean 2 Rocket 3.4 23:50:15 59° WNW 23:50:15 59° WNW 23:54:33 10° N
Nadezhda 4 Rocket 4.3 23:44:57 10° NNW 23:51:00 51° W 23:52:00 46° WSW
Okean 1 Rocket 3.6 23:51:41 49° E 23:51:41 49° E 23:55:42 10° NNE
Cosmos 2227 Rocket 2.0 23:51:25 69° S 23:52:05 80° ESE 23:57:47 10° NNE
Cosmos 1777 Rocket 4.0 23:52:43 63° WSW 23:53:21 70° WNW 23:58:40 10° NNE
Cosmos 1025 Rocket 3.8 23:49:54 10° NNW 23:53:18 43° WNW 23:53:18 43° WNW
SJ 16-02 2.2 23:55:08 40° E 23:55:08 40° E 23:58:55 10° NE
